Flag for Kazakhstan Weather past 2 weeks in Shymkent, Kazakhstan

Now
43 °F

Fog.


Feels Like: 39 °F
Forecast: 37 / 57 °F
Wind: 6 mph from Southeast

Location: Shymkent Airport

Current Time: Mar 6, 2015 at 1:09:27 AM

Latest Report: Mar 6, 2015 at 12:30 AM


Visibility: 2 mi

Pressure: 30.04 "Hg

Humidity: 76%

Dew point: 36 °F

Location of ShymkentLocation

Historic Weather in Shymkent — Graph

°F

Shymkent temperature yesterday

Maximum temperature yesterday: 61 °F (at 3:30 PM)
Minimum temperature yesterday: 37 °F (at 4:30 AM)
Average temperature yesterday: 49 °F

Past Weeks' High & Low Weather Summary

 TemperatureHumidityPressure
High61 °F (Feb 23, 3:30 PM)100% (Feb 22, 9:00 AM)30.45 "Hg (Feb 22, 9:00 AM)
Low30 °F (Feb 19, 8:00 AM)28% (Feb 19, 2:00 PM)29.83 "Hg (Feb 23, 4:00 PM)
Average43 °F73%30.10 "Hg
* Reported Midnight between Feb 18 and Feb 19 — Midnight between Mar 5 and Mar 6, Shymkent, Weather by CustomWeather, © 2015

Note: Actual official high and low records may vary slightly from our data, if they occured in-between our weather recording intervals... More about our weather records

Advertising

Shymkent weather history for previous 24 hours

 ConditionsComfort  
Time TempWeatherWind HumidityBarometerVisibility
12:00 AM
Fri, Mar 6
43 °FFog.3 mph76%30.04 "Hg2 mi
11:30 PM
Thu, Mar 5
45 °FClear.No wind66%30.04 "Hg2 mi
11:00 PM45 °FClear.3 mph66%30.07 "Hg2 mi
10:30 PM46 °FClear.3 mph66%30.07 "Hg2 mi
10:00 PM45 °FClear.1 mph71%30.07 "Hg3 mi
9:30 PM46 °FClear.3 mph66%30.07 "Hg4 mi
9:00 PM46 °FClear.1 mph62%30.07 "Hg10 mi
8:30 PM50 °FClear.1 mph54%30.07 "Hg10 mi
8:00 PM50 °FClear.1 mph58%30.07 "Hg10 mi
7:30 PM52 °FClear.3 mph54%30.07 "Hg10 mi
7:00 PM55 °FSunny.3 mph47%30.07 "Hg10 mi
6:30 PM57 °FSunny.3 mph44%30.07 "Hg10 mi
6:00 PM59 °FPassing clouds.6 mph39%30.04 "HgN/A
5:30 PM59 °FPassing clouds.6 mph39%30.04 "HgN/A
5:00 PM59 °FPassing clouds.6 mph39%30.04 "HgN/A
4:30 PM59 °FSunny.13 mph39%30.04 "Hg10 mi
4:00 PM59 °FPassing clouds.6 mph39%30.04 "HgN/A
3:30 PM61 °FPassing clouds.6 mph36%30.04 "HgN/A
3:00 PM59 °FPassing clouds.6 mph39%30.04 "HgN/A
2:30 PM59 °FSunny.3 mph39%30.07 "Hg10 mi
2:00 PM59 °FPassing clouds.6 mph42%30.07 "HgN/A
1:30 PM59 °FPassing clouds.6 mph42%30.07 "HgN/A
1:00 PM59 °FPassing clouds.6 mph34%30.07 "HgN/A
12:30 PM57 °FPassing clouds.6 mph39%30.07 "HgN/A
12:00 PM57 °FPassing clouds.3 mph39%30.09 "HgN/A
11:30 AM55 °FSunny.1 mph41%30.09 "Hg10 mi
11:00 AM55 °FSunny.1 mph47%30.07 "Hg10 mi
10:30 AM52 °FClear.6 mph58%30.07 "Hg4 mi
10:00 AM48 °FClear.6 mph66%30.07 "Hg4 mi
9:30 AM46 °FClear.3 mph71%30.07 "Hg4 mi
9:00 AM45 °FClear.6 mph71%30.07 "Hg4 mi
8:00 AM41 °FClear.8 mph76%30.07 "Hg4 mi
7:30 AM41 °FClear.3 mph76%30.07 "Hg4 mi
7:00 AM41 °FFog.6 mph76%30.04 "Hg3 mi
6:30 AM39 °FFog.6 mph81%30.04 "Hg2 mi
6:00 AM39 °FFog.6 mph81%30.04 "Hg2 mi
5:30 AM39 °FFog.3 mph81%30.04 "Hg2 mi
5:00 AM37 °FFog.6 mph87%30.01 "Hg2 mi
4:30 AM37 °FFog.6 mph81%30.01 "Hg2 mi
4:00 AM39 °FFog.6 mph81%30.01 "Hg2 mi
3:00 AM39 °FFog.6 mph81%30.04 "Hg2 mi
2:30 AM39 °FFog.3 mph81%30.01 "Hg2 mi
2:00 AM41 °FFog.3 mph81%30.01 "Hg2 mi
1:30 AM39 °FFog.3 mph87%30.01 "Hg2 mi
1:00 AM41 °FFog.6 mph81%30.01 "Hg2 mi
Weather by CustomWeather, © 2015

See weather overviewHow to use our weather pages